Terug naar catalogus

STARLINK-33600

ActiefCommunicatieVLEO
NORAD 62772·PAYLOAD·🇺🇸 United States

Gelanceerd Jan 21, 2025 vanaf Vandenberg Space Force Base

Loading…

Volgende Passages (komende 24 uur)

TLE

VersSource: CelesTrak SupGP

Epoch: Sep 15, 2026, 02:03 UTC

1 62772C 25015Q   26258.08590278 -.00040693  00000+0 -13086-2 0  2580
2 62772  53.1570 161.6316 0001306  78.3366 296.0674 15.31720461    19

Volg STARLINK-33600 in realtime met AllMySat

Download on the App Store